Temp
70 71 72 71 70 70 70 71 72 72 72 73 73 72 72 73 73 73 73 73 73 73 72 72 72 71 71 70 68 68 67 68
71 70 70 69 69 70 70 71 71 71 72 72 71 72 72 73 72 72 73 73 73 72 72 71 70 70 69 69 68 68 66 66
71 71 70 69 70 72 70 71 69 69 70 70 69 69 69 71 71 70 70 71 72 72 71 70 69 68 68 68 68 66 66 66
68 69 70 71 74 70 70 69 66 66 67 67 68 67 67 68 68 69 69 68 70 69 70 69 69 69 69 68 67 67 66 66
74 68 67 66 66 67 66 64 63 61 63 64 63 64 65 64 64 65 64 65 64 65 66 68 70 70 70 69 68 68 67 67
66 66 65 65 63 62 62 61 60 59 60 61 61 61 61 62 62 62 61 62 62 62 62 64 65 66 66 68 69 69 67 67
63 62 62 61 60 59 59 59 58 59 59 60 59 59 59 61 60 59 59 60 60 60 60 60 61 62 63 63 64 64 66 67
62 60 59 59 58 57 56 57 57 57 57 58 59 57 57 58 57 57 56 57 57 57 57 57 58 59 59 61 61 62 62 62
59 58 58 57 57 57 57 56 57 55 55 57 57 57 57 57 56 55 55 54 54 54 55 55 54 57 57 59 59 59 61 61
61 63 58 57 57 58 59 58 57 57 56 56 57 58 57 56 56 56 56 56 55 54 53 53 53 53 53 54 55 57 58 58
59 59 59 58 57 57 56 56 55 55 54 55 56 57 57 55 54 54 54 54 53 54 53 52 52 52 55 54 54 54 56 60
58 58 57 56 54 54 52 52 52 52 52 53 55 55 56 54 53 53 53 53 52 52 52 53 52 52 55 55 54 55 55 56
57 56 54 54 52 51 50 49 50 50 52 53 53 53 54 52 51 51 51 51 51 52 51 51 50 52 49 52 53 55 56 55
55 55 54 53 52 50 50 49 49 50 50 51 52 52 52 53 51 50 50 50 50 50 49 47 48 50 47 46 45 51 55 57
55 54 54 53 53 51 50 50 50 49 49 48 49 51 51 51 51 50 49 49 48 47 47 47 45 47 48 46 43 43 48 53
54 54 53 53 52 50 49 47 46 46 46 47 48 50 51 51 51 50 48 48 47 47 49 46 45 44 47 51 47 48 45 44
52 52 52 51 51 50 47 46 45 46 46 47 48 49 50 51 50 49 48 47 47 47 46 45 45 45 44 44 44 45 46 43
51 51 50 51 50 49 48 48 47 47 47 46 47 48 49 49 50 48 47 47 47 46 46 46 45 44 45 45 44 43 45 45
50 50 50 50 50 50 49 51 50 48 47 46 47 48 47 47 50 47 46 47 47 46 45 45 45 44 44 46 46 45 46 46
51 51 51 50 52 53 53 52 53 52 51 51 50 49 48 51 50 47 48 47 47 47 45 45 44 44 44 44 46 47 46 46
MSLP
1017.86 1017.96 1017.90 1017.69 1017.74 1017.53 1017.57 1017.77 1017.84 1018.10 1018.41 1018.39 1018.18 1018.53 1018.67 1018.74 1018.63 1018.60 1018.47 1018.36 1018.33 1018.31 1018.32 1018.34 1018.44 1018.50 1018.54 1018.60 1018.68 1018.88 1018.96 1018.86
1017.91 1018.32 1018.41 1018.57 1018.38 1018.12 1017.94 1017.94 1018.06 1018.38 1018.68 1018.73 1018.75 1018.77 1018.88 1018.92 1018.99 1018.73 1018.64 1018.53 1018.50 1018.36 1018.34 1018.36 1018.39 1018.40 1018.39 1018.52 1018.60 1018.61 1018.78 1018.97
1017.98 1018.56 1018.73 1018.62 1018.48 1018.67 1018.36 1018.40 1018.66 1018.56 1018.69 1019.08 1019.02 1018.99 1019.17 1019.06 1019.22 1018.97 1018.79 1018.70 1018.68 1018.63 1018.47 1018.41 1018.45 1018.40 1018.33 1018.39 1018.56 1018.52 1018.51 1018.71
1017.61 1018.77 1018.70 1018.61 1018.58 1018.63 1018.76 1018.84 1018.91 1019.11 1019.29 1019.44 1019.64 1019.44 1019.39 1019.60 1019.65 1019.53 1019.40 1018.98 1018.93 1018.82 1018.49 1018.31 1018.35 1018.30 1018.21 1018.11 1018.36 1018.31 1018.37 1018.38
1015.33 1018.31 1018.99 1018.92 1018.72 1018.85 1019.03 1019.06 1018.97 1019.02 1019.45 1019.74 1020.20 1020.23 1019.74 1019.84 1019.94 1020.12 1020.14 1019.94 1019.87 1019.52 1018.94 1018.54 1018.24 1018.19 1018.18 1018.06 1018.16 1018.14 1018.05 1017.91
1017.34 1019.10 1018.66 1018.12 1018.48 1018.57 1019.17 1019.34 1019.59 1019.54 1019.39 1019.45 1020.12 1020.52 1020.14 1020.48 1020.20 1020.11 1020.25 1020.41 1020.39 1020.11 1019.80 1019.18 1018.54 1018.29 1018.59 1018.38 1018.01 1018.04 1017.85 1017.70
1018.82 1019.41 1019.35 1019.36 1019.52 1020.05 1020.44 1020.39 1020.79 1021.24 1020.66 1019.59 1019.90 1020.41 1021.12 1021.55 1021.36 1020.26 1019.84 1020.32 1020.40 1020.31 1019.85 1019.33 1018.81 1018.44 1018.83 1019.02 1018.58 1018.30 1018.10 1017.75
1019.97 1019.97 1020.01 1020.07 1020.19 1019.98 1020.79 1021.42 1021.69 1022.09 1021.20 1020.56 1021.47 1019.78 1021.68 1022.18 1022.17 1020.71 1020.59 1020.71 1020.65 1020.57 1020.24 1019.61 1019.04 1018.93 1018.93 1018.75 1018.66 1018.63 1018.12 1017.47
1020.26 1020.51 1020.65 1020.86 1020.76 1020.50 1021.52 1021.17 1022.21 1022.11 1022.44 1021.51 1022.03 1022.05 1021.43 1021.86 1022.14 1021.65 1021.48 1021.24 1021.19 1020.86 1020.34 1020.02 1019.83 1019.31 1019.01 1018.48 1018.28 1018.27 1017.88 1017.56
1020.43 1020.48 1020.89 1020.82 1020.82 1021.53 1021.89 1022.05 1022.43 1022.43 1022.63 1022.51 1022.72 1022.53 1022.06 1022.39 1022.42 1022.27 1021.94 1021.76 1021.36 1021.05 1020.89 1020.66 1020.40 1019.97 1019.53 1018.66 1018.04 1017.88 1017.60 1017.29
1020.86 1020.94 1020.96 1021.18 1021.63 1022.04 1022.28 1022.49 1022.91 1023.20 1023.27 1023.25 1022.96 1022.69 1022.60 1022.72 1022.71 1022.54 1022.10 1021.78 1021.52 1021.46 1021.36 1021.30 1020.94 1020.38 1019.87 1019.15 1018.08 1017.81 1017.53 1017.00
1021.26 1021.63 1021.84 1022.11 1022.57 1022.84 1023.15 1023.33 1023.59 1023.59 1023.58 1023.52 1023.27 1023.13 1023.04 1023.03 1022.88 1022.63 1022.24 1021.99 1021.81 1021.56 1021.44 1021.15 1021.09 1020.80 1019.95 1019.17 1018.22 1017.54 1017.32 1017.21
1022.10 1022.46 1022.83 1022.85 1023.14 1023.35 1023.62 1023.95 1024.12 1024.09 1023.89 1023.67 1023.54 1023.47 1023.34 1023.24 1023.18 1023.04 1022.77 1022.51 1022.27 1022.02 1021.76 1021.43 1021.14 1020.86 1020.13 1019.11 1018.20 1017.80 1017.50 1017.06
1022.55 1022.64 1022.81 1023.07 1023.17 1023.35 1023.59 1023.98 1024.32 1024.30 1024.15 1024.00 1023.87 1023.71 1023.59 1023.46 1023.51 1023.46 1023.18 1022.76 1022.33 1022.29 1022.23 1022.07 1021.79 1021.38 1021.21 1020.36 1019.60 1018.44 1017.78 1017.25
1022.55 1022.68 1022.90 1023.17 1023.32 1023.62 1024.01 1024.22 1024.49 1024.66 1024.63 1024.49 1024.26 1024.06 1023.90 1023.71 1023.67 1023.63 1023.42 1023.11 1023.01 1022.82 1022.70 1022.68 1022.42 1021.92 1021.67 1021.66 1020.92 1020.17 1019.50 1017.96
1022.40 1022.80 1022.94 1023.40 1023.52 1023.86 1024.39 1025.03 1025.30 1025.36 1025.26 1025.10 1024.73 1024.33 1024.05 1023.81 1023.69 1023.58 1023.50 1023.35 1023.20 1023.01 1022.72 1022.72 1022.61 1022.33 1021.90 1021.55 1021.68 1021.45 1020.49 1019.12
1022.66 1023.00 1023.27 1023.69 1023.89 1024.04 1024.44 1025.10 1025.29 1025.25 1025.23 1025.07 1024.74 1024.31 1024.04 1023.84 1023.68 1023.69 1023.68 1023.45 1023.20 1023.05 1022.80 1022.67 1022.57 1022.39 1022.18 1021.89 1021.54 1021.20 1020.78 1020.43
1023.01 1023.40 1023.98 1024.10 1024.18 1024.41 1024.54 1024.90 1025.15 1025.31 1025.24 1025.16 1024.91 1024.63 1024.14 1023.95 1023.77 1023.72 1023.60 1023.44 1023.21 1022.95 1022.68 1022.53 1022.37 1022.19 1021.97 1021.78 1021.59 1021.36 1020.78 1020.41
1023.77 1023.94 1024.24 1024.15 1024.41 1024.71 1024.91 1025.07 1025.20 1025.30 1025.43 1025.39 1025.08 1024.63 1024.24 1024.05 1023.80 1023.66 1023.51 1023.24 1022.96 1022.72 1022.55 1022.24 1021.99 1021.90 1021.56 1021.29 1021.01 1020.81 1020.49 1020.18
1024.07 1024.23 1024.15 1024.80 1024.91 1024.99 1025.26 1025.43 1025.49 1025.62 1025.77 1025.65 1025.52 1025.29 1024.88 1024.47 1024.31 1024.08 1023.77 1023.44 1023.10 1022.76 1022.45 1021.92 1021.58 1021.34 1021.10 1020.89 1020.57 1020.23 1019.92 1019.69
Wind_Speed
7 7 7 7 6 7 7 7 7 6 4 3 4 2 2 3 5 5 4 4 3 3 3 3 4 5 7 7 7 5 4 4
6 4 4 5 4 6 8 9 9 9 7 5 4 4 4 5 6 6 6 5 5 5 5 5 5 6 6 7 7 8 4 3
8 3 2 2 4 5 8 13 16 13 10 12 7 4 6 6 8 9 6 7 7 7 7 6 6 6 6 8 8 4 5 2
6 4 4 4 5 5 8 9 8 8 8 9 7 7 8 11 14 18 14 11 10 11 10 7 5 3 3 5 3 5 4 5
10 5 1 4 5 4 3 3 4 5 7 6 4 5 4 4 4 5 6 12 6 8 8 5 4 4 4 4 4 5 4 5
11 4 1 8 3 5 4 4 1 3 4 7 4 1 4 4 3 4 4 3 5 5 4 5 5 7 8 8 6 6 4 5
9 5 5 5 7 6 7 6 5 6 4 6 5 4 6 4 4 1 5 3 2 4 4 4 6 7 5 5 7 7 6 4
6 7 5 6 8 11 7 6 5 2 4 8 6 7 4 3 3 6 5 4 4 3 3 4 4 4 5 6 5 6 6 6
8 6 6 6 8 10 5 5 4 5 5 8 8 6 5 4 4 5 4 4 5 4 5 4 4 4 4 4 4 5 5 6
6 7 7 8 9 6 5 5 4 5 5 5 6 6 7 5 4 4 4 4 4 4 4 5 5 5 5 5 4 5 6 6
7 6 7 8 8 7 6 7 5 4 4 3 5 6 6 5 4 4 4 3 4 4 3 3 4 5 7 6 5 4 6 5
8 6 8 8 6 5 4 5 4 4 3 4 5 4 5 4 3 4 4 3 3 3 3 4 3 5 8 7 7 5 4 3
7 7 4 4 3 4 3 3 2 2 3 5 5 5 5 5 4 5 5 4 4 5 3 4 3 6 3 5 5 5 3 3
7 7 5 3 2 2 2 3 2 1 2 4 5 6 6 5 5 5 5 4 6 6 6 4 3 5 3 3 5 5 5 6
7 7 7 4 5 4 4 4 3 4 4 4 5 6 6 5 5 4 5 4 4 4 5 6 4 3 5 2 4 3 8 3
8 7 8 6 6 6 5 2 2 1 2 3 5 6 6 6 4 4 4 3 5 3 3 2 3 4 3 2 2 4 3 6
7 7 7 6 7 7 6 5 2 1 2 5 5 6 6 6 4 4 5 4 5 5 5 5 2 2 2 3 3 3 5 3
7 7 5 6 6 5 7 6 3 2 3 4 4 4 4 4 4 3 4 5 5 5 5 6 5 5 4 4 3 3 5 4
5 6 6 5 6 6 4 3 1 2 4 3 5 4 4 4 3 5 4 5 6 5 6 6 6 5 6 6 4 4 4 6
6 6 6 6 3 4 4 4 3 5 8 7 8 8 7 9 8 7 9 9 9 8 5 5 6 6 8 6 7 7 5 6
Wind_Direction
30 34 47 56 60 80 83 84 88 97 89 94 115 152 211 224 226 233 233 232 233 236 234 242 273 294 298 299 307 302 301 295
63 32 57 45 56 79 84 84 78 63 50 47 33 360 319 295 282 272 270 271 268 257 261 267 272 276 285 294 298 309 289 267
36 352 343 84 89 64 67 66 54 51 40 30 23 19 1 335 315 286 299 298 289 290 287 279 279 279 281 286 294 280 289 244
102 335 212 189 93 68 71 73 63 52 44 43 37 40 51 43 29 28 29 357 358 348 307 295 280 267 274 270 253 261 265 268
176 123 162 84 73 93 76 64 91 86 65 58 33 31 42 46 43 37 15 10 9 1 3 13 335 306 275 271 264 257 252 249
96 38 44 100 138 99 101 78 62 91 100 98 72 20 49 17 69 80 53 8 344 344 332 329 357 20 6 330 322 300 283 263
78 83 31 40 61 51 36 35 41 1 30 81 95 75 38 326 348 100 71 4 334 329 331 338 9 15 354 333 331 332 308 272
84 64 49 66 69 68 57 42 28 353 17 44 353 87 54 356 306 26 41 20 356 344 353 359 2 346 330 322 316 282 307 335
96 93 87 91 91 88 76 96 46 46 359 39 22 12 77 51 6 12 12 10 8 359 359 2 354 334 312 306 303 303 313 319
97 93 85 79 73 75 77 67 67 51 34 39 25 28 43 36 20 12 2 7 9 5 1 348 348 341 324 307 308 311 296 284
94 91 85 78 75 83 76 72 61 56 45 38 34 35 40 44 27 2 2 13 28 9 355 356 330 338 320 303 296 286 289 316
81 73 82 81 78 84 71 73 59 51 45 39 37 32 35 31 17 12 6 2 7 8 3 350 321 343 321 310 299 287 290 297
80 90 89 108 99 98 75 80 66 41 38 29 26 19 21 22 12 4 356 10 7 355 331 338 328 338 322 325 307 301 24 26
111 112 118 119 118 124 116 136 108 97 5 9 13 4 359 7 9 351 347 356 11 8 10 338 324 3 347 316 342 330 354 339
149 138 116 103 108 89 61 53 32 15 1 349 344 354 348 338 341 340 342 0 360 357 358 2 326 331 352 284 340 324 335 313
143 137 126 110 104 90 90 96 90 304 297 314 330 332 321 326 313 323 326 336 347 331 337 326 347 324 334 57 275 284 311 315
143 134 114 115 103 110 115 108 133 235 317 335 332 324 308 292 306 328 332 328 317 317 315 309 291 292 290 300 288 274 253 265
142 129 107 123 119 122 120 120 139 46 343 336 333 317 304 324 348 348 323 315 309 302 298 294 286 280 274 271 254 270 290 288
113 124 138 151 123 120 129 125 84 341 347 337 328 328 325 325 322 320 311 306 301 295 292 282 273 264 266 272 253 247 259 276
107 154 168 82 108 98 47 36 31 30 26 23 21 10 358 358 351 345 338 331 322 315 300 284 276 262 260 254 266 268 260 257